FENGYUN 1C DEB

Satellite information

Favourite Embed

Satellite Type and Status

DEBRISIN ORBIT

Key statistics

Satellite FENGYUN 1C DEB at a glance.

Uptime

9557

Days in orbit

Revolutions

≈ 14.0

Per day

Orbit

SSO

Sun Synchronous Orbit

Inclination

98.9

Latest

Satellite identification and parameters

Extended collection of information and parameters for FENGYUN 1C DEB.

Object identification

Identified? True

Debris? True

Object name: FENGYUN 1C DEB

International designator: 1999-025BQK

Object number (NORAD): 31331

Object ID (CCSDS): 31331

Country: PEOPLES REPUBLIC OF CHINA (PRC)

Current information (Y/N): Y

RCS size: SMALL

Orbital parameters

Period: 102.817 minutes

Inclination: 98.8858 deg

SMA: 7270.061 km

Apoapsis: 929.119 km

Periapsis: 854.733 km

RAAN: 214.8202 deg

Eccentricy: 0.0051159

Argument of periapsis: 274.3707 deg

Mean anomaly: 85.1614 deg

Mean motion: 14.00540537 rev/day

Mean motion (dot): -0.00000128 rev/day2

B* drag term: -0.000056044 1/REarth

Two-line elements (TLE)

Creation date: July 3, 2025, 5:26 p.m.

Reference frame: TEME

Reference center: EARTH

Epoch: July 3, 2025, 8:06 a.m. UTC

TLE line 0: 0 FENGYUN 1C DEB

TLE line 1: 1 31331U 99025BQK 25184.33758277 -.00000128 00000-0 -56044-4 0 9994

TLE line 2: 2 31331 98.8858 214.8202 0051159 274.3707 85.1614 14.00540537615836

Live tracking on map

Real-time ground track for satellite FENGYUN 1C DEB.

In-orbit conjunctions

A list of the most updated potential collisions computed for object FENGYUN 1C DEB.

Target Orbit TCA Probability of collision Miss distance Type
METEOR 1-25 LEO 2024-11-10 08:16:05 0.0004065733 157.0 (m) PAYLOAD

Associated space launch

Chinese polar orbiting meteorological satellite

FENGYUN 1C DEB was lifted into orbit during the mission ‘Long March 4B | Feng Yun 1C’, on board a Long March 4B space rocket.

The launch took place on May 10, 1999, 1:33 a.m. from Launch Complex 7.

For more information about the launch, click the button.

Launch to space Long March 4B | Feng Yun 1C
Long March 4B | Feng Yun 1C

Agency: N/A

Status: Launch Successful

Launch date: May 10, 1999, 1:33 a.m. UTC

Rocket: Long March 4B

Launch pad: Launch Complex 7

Location: Taiyuan Satellite Launch Center, People's Republic of China

...

Latest news about this satellite

There are no fresh news available about this satellite. Check back as we update our databases every day.


Newsletter sign-up

Weekly statistics, charts and insights to help you stay on top of the space industry.